Location: Friaudour
(46.0460°N, 1.2873°E)
Time: 01:15:00
(UTC+00:00)

Cosmos 972 Rocket - Visible Passes

Search period start: 24 October 2020 00:00
Search period end: 03 November 2020 00:00
Orbit: 713 x 1151 km, 75.8° (Epoch: 23 October)

Date Brightness Start Highest point End Pass type
(mag) Time Alt. Az. Time Alt. Az. Time Alt. Az.
24 Oct 6.9 05:31:40 10° N 05:37:04 24° NE 05:42:38 10° ESE visible
25 Oct 6.5 05:43:45 10° N 05:49:50 32° ENE 05:56:09 10° ESE visible
26 Oct 7.4 04:13:42 10° NNE 04:15:08 11° NE 04:16:36 10° NE visible
26 Oct 6.1 05:55:58 10° N 06:02:32 43° ENE 06:09:22 10° SE visible
27 Oct 7.2 04:24:32 10° NNE 04:28:12 15° NE 04:31:56 10° ENE visible
28 Oct 7.1 04:36:17 10° N 04:41:10 20° NE 04:46:10 10° E visible
29 Oct 6.8 04:48:16 10° N 04:54:01 26° NE 04:59:55 10° ESE visible
30 Oct 6.4 05:00:25 10° N 05:06:48 35° ENE 05:13:20 10° ESE visible
31 Oct 7.4 03:29:35 10° NNE 03:32:10 12° NE 03:34:47 10° ENE visible
31 Oct 5.9 05:12:41 10° N 05:19:30 47° ENE 05:26:27 10° SE visible
01 Nov 7.2 03:40:59 10° N 03:45:12 16° NE 03:49:29 10° E visible
01 Nov 5.3 05:25:01 10° NNW 05:32:06 64° ENE 05:39:18 10° SSE visible
02 Nov 7.0 03:52:52 10° N 03:58:09 22° NE 04:03:31 10° E visible
02 Nov 4.9 05:37:25 10° NNW 05:44:38 86° ENE 05:51:54 10° SSE visible
02 Nov 6.2 19:03:24 10° S 19:04:12 14° S 19:04:12 14° S visible
02 Nov7.321:03:02NNE21:03:02NNE20:48:05SWvisible
